Temp
12 12 12 12 11 11 11 11 10 11 11 11 11 11 10 10 10 10 10 10 10 10 10 10 10 10 11 11 10 10 10 10 11 10 10 10 9 9 9 9 9 8 8
12 12 11 11 11 11 11 11 10 10 10 10 11 11 11 10 10 10 10 10 10 10 10 10 10 10 10 11 10 10 10 10 10 10 10 9 9 9 9 9 8 8 8
12 11 11 11 11 11 11 11 10 10 10 10 10 10 11 11 11 10 10 10 10 10 10 10 10 10 10 10 10 10 10 10 10 10 10 9 9 9 9 9 9 8 8
11 11 11 11 11 10 10 10 10 10 10 10 10 10 10 10 11 10 10 10 10 10 10 10 10 10 10 10 10 10 10 10 10 10 9 9 9 9 9 9 8 8 8
11 11 11 10 10 10 10 10 10 10 10 10 10 10 10 10 10 10 10 10 10 10 10 10 10 9 9 9 9 9 9 9 9 9 9 9 9 8 8 8 8 8 8
10 10 10 10 10 10 10 10 10 10 10 10 10 10 10 10 10 10 10 10 9 9 9 9 9 9 9 9 9 9 9 8 8 8 8 8 8 8 8 7 7 7 7
10 10 10 10 10 10 10 10 10 10 10 10 10 10 10 10 9 9 9 9 9 9 9 9 9 9 8 8 8 8 8 8 8 8 8 8 7 7 7 7 7 6 6
10 10 10 10 10 10 9 9 9 9 10 10 10 9 10 9 9 9 9 9 8 8 8 8 8 8 7 7 7 7 7 7 7 6 6 6 6 6 6 6 6 6 6
10 10 10 10 10 10 9 9 9 9 9 9 9 9 9 9 8 8 8 8 8 8 7 7 7 7 7 7 7 6 6 6 6 6 6 6 6 6 6 6 5 5 5
10 10 10 10 10 10 9 9 9 9 9 9 9 9 9 9 8 8 8 8 7 7 7 7 7 7 6 6 7 7 7 6 6 6 6 6 6 5 5 5 5 5 5
9 10 10 9 9 9 9 9 9 9 9 9 9 9 9 8 8 8 8 7 7 7 7 7 7 7 7 7 7 7 7 7 6 6 6 6 6 6 6 5 4 4 4
9 9 9 9 9 9 9 9 9 9 9 9 9 9 9 8 8 8 8 7 7 7 7 7 7 7 6 6 6 6 6 6 6 6 6 6 6 6 6 6 5 4 4
9 9 9 9 9 9 9 9 9 9 9 9 8 8 8 8 8 8 7 7 7 7 7 6 6 6 6 6 6 6 6 6 5 6 6 6 5 5 5 5 5 5 5
8 8 9 9 9 9 9 9 9 9 8 8 8 7 7 7 7 7 7 7 7 6 6 6 7 6 6 6 6 6 6 5 5 6 6 6 6 6 6 6 6 5 5
8 8 8 8 9 9 9 9 8 8 8 8 8 7 7 7 7 7 7 7 7 6 6 6 6 6 6 6 6 6 6 6 6 6 6 6 6 6 6 6 6 6 6
8 8 8 8 8 9 8 8 8 8 8 8 7 7 7 6 6 6 6 6 6 6 6 6 6 5 5 5 5 5 6 6 6 7 7 7 7 7 6 6 6 6 6
7 7 7 8 8 8 8 8 8 8 8 8 7 7 6 6 6 6 6 6 6 5 5 5 5 5 6 6 6 6 6 6 6 6 6 6 6 6 6 6 6 6 5
7 7 7 7 8 8 8 8 8 8 7 7 7 6 6 5 5 6 6 6 5 5 5 5 5 5 6 6 6 6 6 6 6 6 6 6 6 5 5 5 5 5 5
7 7 7 7 7 8 8 8 8 7 7 7 7 6 6 6 5 5 6 5 5 5 5 5 5 6 6 6 6 5 6 6 5 5 5 5 5 5 5 4 4 4 4
7 7 7 7 7 7 7 7 7 7 7 6 6 6 6 5 5 5 5 4 4 4 4 5 5 5 6 6 5 5 5 5 5 5 4 4 3 3 3 3 3 3 3
6 6 7 7 7 7 7 7 7 6 6 6 6 6 6 5 5 5 4 4 4 4 4 5 5 5 5 5 5 4 4 4 4 4 3 3 3 2 2 2 2 2 2
6 6 7 7 7 7 7 6 6 6 6 6 6 5 5 4 4 4 3 3 3 4 4 4 5 5 5 5 5 5 5 4 4 4 3 3 2 3 2 2 2 2 2
6 6 7 7 6 6 6 6 6 6 6 6 5 5 4 4 3 3 3 3 3 4 4 4 5 5 5 4 4 4 4 5 5 4 4 3 3 3 2 2 2 1 1
6 6 7 6 6 6 6 6 6 6 5 5 5 4 3 3 2 2 2 3 3 3 4 4 4 4 4 4 3 3 2 2 3 4 4 3 3 2 2 2 1 1 -0
6 6 6 6 6 6 6 5 5 5 5 4 4 3 3 2 2 2 2 3 3 3 3 4 4 4 3 3 3 2 2 1 1 1 3 3 3 2 2 2 1 1 -1
6 6 6 6 6 6 5 5 5 5 4 4 3 3 2 2 2 2 2 2 3 3 3 3 3 3 2 2 1 1 0 0 1 1 1 2 2 2 2 1 0 -1 -2
Height
3146 3145 3144 3143 3141 3140 3139 3137 3136 3134 3133 3131 3131 3130 3129 3128 3127 3127 3128 3128 3128 3128 3129 3130 3130 3130 3130 3131 3132 3132 3132 3131 3131 3130 3130 3130 3129 3128 3128 3127 3127 3126 3126
3145 3144 3144 3143 3142 3141 3139 3138 3136 3134 3133 3132 3131 3129 3129 3128 3127 3126 3127 3128 3128 3127 3128 3128 3129 3129 3129 3129 3130 3130 3129 3129 3128 3128 3127 3127 3126 3126 3125 3125 3124 3125 3124
3144 3144 3144 3143 3142 3141 3139 3138 3136 3135 3134 3133 3131 3129 3128 3127 3127 3126 3126 3126 3127 3127 3127 3127 3128 3128 3128 3127 3127 3127 3127 3126 3126 3125 3124 3124 3123 3122 3122 3121 3121 3121 3121
3143 3143 3144 3143 3142 3141 3139 3138 3136 3134 3133 3132 3131 3130 3128 3127 3126 3126 3125 3125 3126 3126 3127 3126 3127 3126 3126 3125 3125 3124 3124 3123 3123 3122 3121 3120 3119 3119 3118 3118 3118 3117 3117
3143 3143 3143 3142 3142 3140 3139 3138 3136 3134 3133 3132 3130 3129 3128 3127 3126 3125 3124 3125 3125 3124 3124 3124 3125 3125 3124 3123 3123 3122 3122 3120 3120 3119 3118 3117 3116 3115 3115 3114 3114 3114 3114
3142 3142 3142 3142 3141 3140 3139 3138 3137 3134 3133 3132 3130 3128 3126 3125 3124 3124 3123 3124 3124 3123 3123 3123 3123 3123 3123 3122 3121 3120 3119 3118 3117 3116 3115 3114 3113 3112 3112 3111 3110 3110 3110
3141 3141 3142 3141 3140 3140 3139 3138 3136 3134 3133 3132 3129 3128 3126 3124 3123 3123 3122 3123 3123 3122 3122 3121 3121 3120 3120 3119 3118 3118 3117 3115 3114 3113 3112 3111 3110 3109 3108 3108 3107 3106 3105
3139 3140 3140 3140 3139 3139 3138 3137 3136 3135 3134 3132 3130 3127 3126 3124 3123 3122 3122 3122 3122 3122 3121 3120 3120 3120 3120 3119 3118 3116 3115 3113 3112 3111 3109 3108 3107 3106 3105 3104 3104 3104 3103
3137 3138 3138 3138 3138 3138 3137 3136 3136 3135 3134 3133 3130 3128 3126 3124 3123 3122 3122 3121 3122 3121 3120 3119 3118 3118 3117 3117 3116 3115 3114 3113 3111 3109 3107 3105 3104 3103 3102 3102 3101 3101 3100
3135 3135 3136 3136 3136 3136 3136 3136 3136 3134 3133 3132 3129 3128 3126 3124 3123 3122 3121 3121 3121 3119 3119 3118 3117 3116 3116 3115 3114 3112 3111 3110 3108 3106 3105 3102 3101 3099 3099 3098 3097 3097 3096
3132 3133 3134 3134 3134 3134 3134 3134 3134 3132 3132 3131 3129 3127 3125 3124 3123 3122 3122 3120 3119 3119 3117 3116 3115 3114 3113 3112 3111 3109 3107 3106 3104 3103 3101 3098 3097 3096 3095 3094 3093 3092 3091
3130 3131 3131 3132 3132 3132 3132 3133 3132 3131 3131 3129 3128 3126 3124 3124 3123 3121 3120 3119 3117 3117 3116 3114 3113 3111 3110 3109 3107 3106 3104 3102 3101 3099 3097 3095 3093 3091 3090 3090 3088 3087 3086
3126 3127 3128 3129 3129 3130 3130 3130 3130 3129 3129 3128 3126 3125 3124 3123 3121 3120 3118 3118 3117 3115 3114 3112 3111 3109 3108 3107 3105 3103 3101 3098 3096 3094 3092 3090 3088 3087 3086 3085 3083 3082 3081
3123 3125 3125 3126 3127 3127 3127 3127 3127 3127 3126 3125 3124 3122 3121 3120 3120 3118 3117 3116 3115 3113 3112 3109 3108 3106 3104 3102 3101 3098 3096 3093 3091 3089 3087 3084 3082 3080 3079 3078 3077 3075 3074
3118 3120 3122 3123 3123 3124 3124 3124 3124 3124 3124 3122 3121 3120 3119 3117 3117 3116 3114 3113 3112 3110 3108 3106 3104 3102 3100 3098 3095 3092 3089 3086 3084 3082 3080 3077 3075 3073 3072 3070 3069 3068 3067
3114 3116 3117 3119 3120 3120 3121 3121 3121 3121 3120 3119 3118 3117 3116 3114 3114 3113 3111 3110 3108 3107 3104 3101 3100 3097 3095 3094 3091 3087 3083 3081 3079 3077 3074 3072 3070 3068 3066 3064 3062 3060 3059
3109 3111 3112 3113 3115 3116 3116 3117 3117 3116 3115 3116 3115 3114 3113 3111 3111 3109 3107 3105 3103 3102 3099 3096 3094 3092 3090 3087 3084 3081 3079 3076 3074 3072 3069 3067 3064 3062 3060 3058 3055 3052 3050
3102 3104 3106 3107 3109 3110 3111 3112 3112 3112 3112 3112 3111 3110 3109 3108 3107 3105 3103 3101 3099 3097 3094 3091 3089 3087 3084 3082 3080 3076 3074 3072 3069 3066 3063 3061 3058 3056 3053 3051 3049 3046 3043
3096 3098 3100 3101 3102 3103 3105 3107 3107 3107 3107 3107 3106 3105 3105 3105 3103 3100 3099 3097 3095 3093 3090 3086 3084 3081 3080 3077 3074 3071 3069 3067 3064 3060 3057 3054 3051 3049 3047 3044 3042 3039 3036
3091 3093 3094 3095 3096 3098 3100 3102 3102 3102 3103 3102 3102 3101 3101 3101 3100 3097 3095 3093 3091 3088 3085 3081 3078 3075 3074 3072 3069 3066 3062 3061 3058 3055 3051 3049 3045 3043 3041 3037 3035 3032 3028
3085 3087 3088 3089 3091 3094 3095 3097 3097 3098 3098 3098 3098 3098 3097 3097 3096 3093 3091 3089 3087 3084 3080 3077 3073 3070 3068 3066 3064 3062 3057 3054 3052 3049 3046 3043 3039 3036 3033 3030 3027 3024 3021
3081 3082 3082 3082 3085 3088 3090 3092 3093 3094 3094 3095 3095 3095 3094 3094 3092 3090 3088 3085 3082 3078 3075 3071 3068 3066 3063 3060 3057 3054 3052 3052 3048 3043 3040 3038 3034 3030 3027 3022 3018 3014 3010
3076 3077 3077 3078 3080 3084 3085 3088 3089 3090 3091 3092 3093 3092 3091 3091 3089 3087 3084 3080 3077 3074 3071 3068 3065 3061 3057 3052 3049 3045 3039 3036 3033 3035 3033 3030 3025 3021 3017 3012 3008 3003 2999
3072 3072 3073 3074 3077 3080 3083 3085 3086 3087 3088 3090 3089 3089 3088 3088 3085 3082 3079 3076 3073 3069 3066 3062 3059 3055 3051 3046 3042 3037 3032 3026 3019 3014 3020 3019 3014 3009 3005 3001 2996 2991 2985
3067 3068 3070 3072 3074 3077 3080 3082 3083 3085 3086 3086 3086 3086 3086 3083 3081 3078 3075 3071 3068 3064 3060 3056 3052 3049 3044 3040 3035 3030 3026 3021 3014 3005 2998 3002 3004 2999 2994 2987 2981 2976 2970
3063 3065 3067 3069 3072 3074 3077 3079 3081 3082 3083 3083 3083 3083 3081 3079 3077 3074 3070 3066 3062 3058 3054 3050 3046 3041 3037 3032 3027 3021 3016 3010 3004 2997 2989 2984 2978 2978 2975 2973 2967 2961 2955
Wind_Speed
4 6 8 9 11 12 12 12 13 14 13 13 12 11 9 8 9 7 5 3 4 5 6 7 6 6 6 5 5 6 8 10 9 8 10 11 11 11 11 10 10 10 10
3 5 7 9 10 11 12 12 13 14 14 13 13 11 10 9 7 6 5 3 3 4 5 5 5 5 6 6 6 7 9 10 11 10 10 11 11 11 11 10 9 10 10
2 5 5 7 8 10 12 13 14 13 13 13 13 12 11 10 8 6 4 3 5 5 5 5 6 6 7 8 9 9 9 10 10 11 12 12 12 11 12 12 10 11 10
2 3 4 5 6 8 11 13 14 14 14 12 11 11 11 10 8 6 4 3 4 5 6 6 7 7 9 9 10 10 11 12 12 13 14 14 13 13 13 13 13 12 12
4 3 4 5 5 7 9 12 14 15 14 13 12 11 9 7 6 5 3 3 5 6 8 9 9 10 10 10 11 11 12 13 13 14 14 14 14 13 14 14 14 14 14
6 3 3 3 5 6 8 10 13 15 15 15 14 12 10 8 6 5 3 3 5 7 8 9 10 11 11 11 12 12 12 12 12 12 12 12 13 14 13 14 15 16 17
8 5 3 3 3 5 6 9 12 14 15 16 16 13 11 8 6 4 3 3 4 5 7 7 8 9 9 9 10 10 11 12 12 13 14 14 14 14 15 14 15 15 15
11 8 6 4 3 4 4 8 11 12 14 17 16 14 13 10 8 6 4 4 5 6 7 8 8 9 9 10 11 11 12 13 14 14 14 15 14 14 15 15 15 16 16
13 10 8 6 4 4 4 7 10 11 13 15 16 14 13 12 10 8 7 6 6 7 8 8 8 9 9 10 11 13 14 15 16 17 17 18 17 18 17 16 16 17 17
13 12 10 9 5 5 5 6 9 10 13 15 15 13 11 11 9 7 6 6 6 6 7 8 10 10 11 12 13 13 14 15 16 18 19 20 21 21 21 21 20 20 20
12 12 11 11 8 7 6 6 8 10 13 14 14 13 11 10 9 9 8 8 9 9 10 11 11 12 12 13 14 14 14 15 15 16 17 20 21 21 22 22 23 23 25
13 13 12 13 12 10 7 7 8 11 13 14 13 12 12 13 12 11 11 11 11 13 13 14 14 14 14 14 14 15 15 15 16 18 19 21 23 23 23 23 23 24 25
18 17 14 15 15 12 10 9 9 13 14 15 13 12 11 12 13 14 13 14 14 15 15 15 15 15 16 16 17 17 19 19 20 20 20 21 22 23 23 24 25 27 28
20 18 18 17 16 15 13 11 12 14 15 15 14 14 14 13 13 14 15 16 16 16 15 15 17 18 19 20 21 21 22 22 23 23 23 24 25 25 26 27 27 29 30
26 18 18 20 20 18 16 14 15 16 17 16 16 17 16 15 16 15 15 17 17 16 18 19 21 22 21 22 23 23 25 26 26 25 24 24 24 25 26 27 28 28 29
26 24 22 22 23 22 20 18 18 18 19 17 18 18 17 17 17 17 18 18 18 19 20 21 22 23 23 23 25 26 25 23 22 22 23 25 26 27 27 28 29 29 30
31 29 30 27 27 25 24 22 22 21 20 19 19 19 18 18 19 19 19 19 21 22 22 23 24 25 25 27 25 22 22 23 23 24 25 26 27 28 29 29 30 31 31
24 26 30 30 30 30 28 25 24 23 21 19 20 19 19 19 20 20 21 22 22 24 24 25 26 28 27 22 21 24 24 24 25 26 27 28 27 27 28 28 29 30 32
22 24 26 30 31 31 30 27 24 22 20 20 20 19 19 19 20 20 22 22 23 24 26 28 29 26 22 23 23 25 25 25 26 27 27 27 28 29 29 30 30 31 32
19 21 24 28 32 31 29 27 23 20 21 21 19 18 18 19 19 20 22 22 24 27 28 29 26 24 24 24 24 25 27 27 27 27 28 27 29 30 30 32 32 33 34
22 23 25 27 29 29 26 24 20 20 21 19 17 16 17 18 19 20 21 24 27 28 27 25 25 26 27 26 26 25 28 29 29 29 28 29 30 32 33 34 35 36 37
23 25 27 28 25 22 23 22 21 21 19 16 15 16 16 17 18 21 24 26 26 25 25 25 26 28 29 30 31 32 32 30 31 32 32 32 34 34 35 38 39 41 43
23 24 23 23 21 22 23 22 21 18 15 15 15 13 14 17 20 22 24 24 24 24 24 25 26 28 31 34 36 38 40 41 41 36 34 35 37 38 39 42 44 46 49
20 20 19 19 20 21 21 19 18 16 14 13 11 12 15 19 21 22 23 23 23 23 24 26 29 31 34 36 37 38 39 42 46 50 42 39 40 42 44 46 48 50 52
21 18 19 20 21 21 19 18 16 14 11 10 11 13 16 19 21 21 22 23 24 25 27 30 33 35 37 39 40 40 39 41 43 49 53 47 44 46 49 52 54 55 55
24 20 23 24 22 21 20 17 15 12 9 9 11 14 16 19 21 23 24 26 27 29 31 33 36 39 40 40 40 40 42 44 46 49 54 56 59 58 57 58 58 58 57
Wind_Direction
47 23 29 28 31 32 31 32 32 33 26 16 14 10 352 334 323 311 300 294 292 298 303 303 305 306 298 292 282 281 282 285 284 282 287 296 299 298 298 301 308 308 305
23 17 24 28 35 38 39 33 32 29 27 21 15 13 12 5 348 335 333 321 287 287 289 294 295 290 285 281 274 274 279 284 291 292 290 293 293 289 287 290 297 293 295
331 356 29 28 36 41 41 37 34 31 23 18 14 11 11 10 11 7 1 316 298 293 290 287 281 275 277 276 275 276 281 282 282 287 288 285 286 286 285 285 282 285 289
303 342 26 31 37 42 41 38 35 32 24 18 10 7 6 8 8 17 358 314 297 298 291 289 283 280 275 275 277 280 283 282 285 285 284 284 283 282 280 281 283 281 282
287 332 3 16 31 34 32 31 31 32 22 16 8 358 357 0 8 25 331 311 288 281 278 282 286 287 283 285 284 287 286 287 285 281 282 283 281 279 278 276 277 278 276
265 289 331 354 17 24 22 21 24 27 23 14 8 358 348 351 354 358 346 321 285 279 282 282 285 287 289 289 289 286 284 286 287 287 286 284 284 281 275 275 274 272 273
254 270 283 309 2 13 17 13 18 22 17 9 6 358 349 347 342 351 355 296 282 282 283 283 284 285 285 284 283 282 285 285 287 287 287 286 284 283 282 275 273 275 274
247 258 256 275 318 354 4 4 13 16 12 6 3 3 359 359 347 343 326 304 305 305 303 300 299 301 302 303 300 301 300 299 300 297 295 292 290 285 282 284 280 277 279
239 243 244 258 287 320 334 352 3 7 7 1 0 1 3 9 8 360 346 349 342 331 323 314 310 307 306 309 310 311 311 310 308 305 301 298 297 295 291 286 286 287 287
231 236 239 247 262 286 301 332 345 357 358 355 356 352 354 356 355 1 15 9 356 347 336 328 321 320 323 324 320 319 317 312 307 302 300 296 293 292 291 291 290 286 283
236 242 247 245 255 263 277 306 334 349 345 345 346 340 340 336 329 334 338 343 335 327 323 323 323 324 325 325 325 323 320 315 311 308 304 298 297 295 292 289 287 288 285
237 247 252 252 252 253 262 286 316 329 332 332 332 332 327 319 319 320 322 322 322 320 326 327 326 325 325 321 317 313 308 305 302 298 296 296 296 294 291 290 285 280 277
238 244 252 254 248 248 254 275 296 316 317 318 320 319 314 301 300 305 310 310 316 321 325 323 320 317 314 312 310 309 306 303 300 296 293 290 288 287 286 284 282 283 284
244 246 251 253 248 246 249 269 285 299 303 303 306 307 305 299 297 298 303 310 315 314 312 310 309 309 313 314 313 311 308 304 299 298 295 291 289 286 283 279 276 274 273
241 244 253 251 248 246 248 258 276 287 291 292 297 297 299 300 297 301 304 306 309 308 307 310 310 312 314 314 311 309 304 302 302 301 298 295 291 289 287 284 280 279 276
252 248 256 259 247 245 247 258 267 276 282 281 286 287 294 294 295 300 304 306 306 304 306 309 309 312 313 310 306 304 302 303 303 302 300 297 296 294 292 289 286 284 281
256 258 261 259 249 246 251 257 263 269 276 275 279 283 286 288 290 299 303 304 307 306 308 310 312 311 312 312 311 308 308 307 306 303 300 297 295 292 290 288 287 286 284
251 253 247 248 248 249 252 255 260 265 269 270 275 275 277 282 292 300 303 303 307 307 309 311 310 310 312 311 310 306 306 305 304 301 299 297 296 294 293 290 288 285 284
254 256 250 245 246 247 249 254 261 265 265 268 270 269 273 283 289 297 299 302 304 308 310 310 308 309 310 310 309 306 305 304 303 301 299 299 297 295 294 293 290 288 287
252 258 254 246 245 249 250 254 258 258 260 265 265 267 275 283 289 294 297 304 306 307 308 307 307 308 308 307 306 304 304 304 302 300 300 298 297 298 297 295 294 292 291
256 265 264 257 253 251 251 252 248 251 257 259 261 268 277 284 290 294 302 304 304 305 306 306 307 309 308 307 304 302 303 302 301 299 297 298 297 297 296 293 293 291 289
257 266 265 261 255 246 239 235 238 245 248 253 262 270 279 286 293 300 300 300 303 307 308 311 311 309 308 307 307 305 300 295 295 296 296 295 291 291 292 293 293 293 293
261 269 262 251 237 226 224 231 239 239 245 256 264 274 282 289 294 296 299 304 306 307 309 310 310 311 312 312 311 309 308 305 300 293 293 295 294 294 295 296 296 297 296
270 263 248 226 215 216 224 226 227 235 245 253 264 277 287 292 297 302 304 304 306 311 314 317 316 316 315 313 311 309 307 306 305 303 301 301 300 301 300 299 298 297 297
261 259 231 213 213 217 220 225 233 239 236 252 273 287 294 301 303 305 306 309 313 317 318 319 320 319 317 315 311 307 304 304 305 304 304 304 300 300 301 302 302 300 298
252 249 226 217 215 217 222 229 232 224 240 266 284 295 303 306 307 309 313 315 317 320 320 320 319 318 316 314 310 309 308 307 306 306 306 307 307 307 305 303 302 299 298